• En España
  • Lista de países
  • Para 7 días
  • Temperatura del agua
  • Mapa Satelital
  • El tiempo en el mapa
  • Informadores
  • user-avatar
    Iniciar sesión

    Tiempo cada hora Sobreda

    Hoy, 23 Enero, Martes

    Tiempo Temperatura Precipitaciones Viento Presión Humedad
    00:00 +10°C° 0 mm 4 mps 765 mmHg 93%
    01:00 +8°C° 0 mm 4 mps 765 mmHg 94%
    02:00 +8°C° 0 mm 4 mps 765 mmHg 94%
    03:00 +8°C° 0 mm 4 mps 765 mmHg 94%
    04:00 +8°C° 0 mm 4 mps 765 mmHg 95%
    05:00 +8°C° 0 mm 4 mps 765 mmHg 95%
    06:00 +8°C° 0 mm 4 mps 765 mmHg 94%
    07:00 +8°C° 0 mm 4 mps 765 mmHg 92%
    08:00 +10°C° 0 mm 4 mps 765 mmHg 91%
    09:00 +12°C° 0 mm 4 mps 765 mmHg 83%
    10:00 +14°C° 0 mm 4 mps 765 mmHg 75%
    11:00 +17°C° 0 mm 4 mps 765 mmHg 66%
    12:00 +17°C° 0 mm 4 mps 765 mmHg 64%
    13:00 +18°C° 0 mm 4 mps 764 mmHg 62%
    14:00 +19°C° 0 mm 4 mps 764 mmHg 59%
    15:00 +17°C° 0 mm 4 mps 764 mmHg 66%
    16:00 +15°C° 0 mm 4 mps 764 mmHg 74%
    17:00 +13°C° 0 mm 4 mps 764 mmHg 81%
    18:00 +12°C° 0 mm 4 mps 764 mmHg 85%
    19:00 +11°C° 0 mm 4 mps 764 mmHg 89%
    20:00 +11°C° 0 mm 4 mps 764 mmHg 93%
    21:00 +10°C° 0 mm 4 mps 764 mmHg 94%
    22:00 +10°C° 0 mm 4 mps 764 mmHg 94%
    23:00 +10°C° 0 mm 3 mps 764 mmHg 95%

    Mañana, 24 Enero, Miércoles

    Tiempo Temperatura Precipitaciones Viento Presión Humedad
    00:00 +9°C° 0 mm 3 mps 764 mmHg 95%
    01:00 +9°C° 0 mm 3 mps 764 mmHg 96%
    02:00 +8°C° 0 mm 2 mps 764 mmHg 96%
    03:00 +8°C° 0 mm 2 mps 763 mmHg 96%
    04:00 +8°C° 0 mm 2 mps 763 mmHg 97%
    05:00 +8°C° 0 mm 2 mps 763 mmHg 97%
    06:00 +8°C° 0 mm 2 mps 763 mmHg 96%
    07:00 +8°C° 0 mm 2 mps 763 mmHg 95%
    08:00 +9°C° 0 mm 2 mps 764 mmHg 94%
    09:00 +12°C° 0 mm 2 mps 764 mmHg 86%
    10:00 +14°C° 0 mm 2 mps 764 mmHg 77%
    11:00 +15°C° 0 mm 2 mps 764 mmHg 68%
    12:00 +16°C° 0 mm 2 mps 763 mmHg 65%
    13:00 +17°C° 0 mm 2 mps 763 mmHg 61%
    14:00 +17°C° 0 mm 2 mps 763 mmHg 58%
    15:00 +16°C° 0 mm 2 mps 763 mmHg 65%
    16:00 +14°C° 0 mm 2 mps 763 mmHg 73%
    17:00 +12°C° 0 mm 3 mps 763 mmHg 80%
    18:00 +12°C° 0 mm 2 mps 763 mmHg 84%
    19:00 +12°C° 0 mm 2 mps 763 mmHg 87%
    20:00 +10°C° 0 mm 2 mps 763 mmHg 90%
    21:00 +10°C° 0 mm 2 mps 763 mmHg 91%
    22:00 +10°C° 0 mm 2 mps 763 mmHg 92%
    23:00 +10°C° 0 mm 2 mps 763 mmHg 92%

    Pasado mañana, 25 Enero, Jueves

    Tiempo Temperatura Precipitaciones Viento Presión Humedad
    00:00 +11°C° 0 mm 3 mps 763 mmHg 93%
    01:00 +11°C° 0 mm 3 mps 762 mmHg 94%
    02:00 +11°C° 0 mm 3 mps 762 mmHg 95%
    03:00 +12°C° 0,1 mm 3 mps 762 mmHg 95%
    04:00 +12°C° 0,1 mm 4 mps 762 mmHg 95%
    05:00 +12°C° 0,1 mm 4 mps 761 mmHg 96%
    06:00 +13°C° 0,1 mm 4 mps 762 mmHg 95%
    07:00 +13°C° 0,1 mm 4 mps 762 mmHg 93%
    08:00 +13°C° 0,1 mm 4 mps 762 mmHg 92%
    09:00 +13°C° 0 mm 5 mps 763 mmHg 84%
    10:00 +14°C° 0 mm 6 mps 763 mmHg 76%
    11:00 +15°C° 0 mm 6 mps 763 mmHg 67%
    12:00 +15°C° 0 mm 7 mps 763 mmHg 64%
    13:00 +15°C° 0 mm 8 mps 762 mmHg 60%
    14:00 +15°C° 0 mm 8 mps 762 mmHg 56%
    15:00 +12°C° 0 mm 8 mps 762 mmHg 60%
    16:00 +11°C° 0 mm 8 mps 762 mmHg 64%
    17:00 +10°C° 0 mm 7 mps 763 mmHg 68%
    18:00 +9°C° 0 mm 7 mps 763 mmHg 69%
    19:00 +9°C° 0 mm 7 mps 764 mmHg 70%
    20:00 +8°C° 0 mm 7 mps 765 mmHg 72%
    21:00 +8°C° 0 mm 7 mps 765 mmHg 73%
    22:00 +6°C° 0 mm 7 mps 765 mmHg 73%
    23:00 +6°C° 0 mm 7 mps 765 mmHg 74%

    26 Enero, Viernes

    Tiempo Temperatura Precipitaciones Viento Presión Humedad
    00:00 +7°C° 0 mm 6 mps 765 mmHg 75%
    01:00 +7°C° 0 mm 6 mps 765 mmHg 76%
    02:00 +5°C° 0 mm 6 mps 765 mmHg 76%
    03:00 +5°C° 0,1 mm 6 mps 766 mmHg 77%
    04:00 +5°C° 0,1 mm 6 mps 766 mmHg 78%
    05:00 +5°C° 0,1 mm 6 mps 766 mmHg 79%
    06:00 +5°C° 0 mm 6 mps 766 mmHg 78%
    07:00 +7°C° 0 mm 6 mps 767 mmHg 77%
    08:00 +7°C° 0 mm 6 mps 767 mmHg 76%
    09:00 +9°C° 0 mm 6 mps 768 mmHg 67%
    10:00 +10°C° 0 mm 7 mps 768 mmHg 58%
    11:00 +12°C° 0 mm 7 mps 769 mmHg 49%
    12:00 +12°C° 0 mm 7 mps 769 mmHg 48%
    13:00 +14°C° 0 mm 7 mps 768 mmHg 47%
    14:00 +14°C° 0 mm 7 mps 768 mmHg 46%
    15:00 +12°C° 0 mm 7 mps 768 mmHg 52%
    16:00 +10°C° 0 mm 7 mps 769 mmHg 58%
    17:00 +9°C° 0 mm 7 mps 769 mmHg 64%
    18:00 +9°C° 0 mm 7 mps 769 mmHg 68%
    19:00 +8°C° 0 mm 7 mps 770 mmHg 73%
    20:00 +8°C° 0 mm 7 mps 770 mmHg 77%
    21:00 +6°C° 0 mm 7 mps 770 mmHg 78%
    22:00 +6°C° 0 mm 7 mps 770 mmHg 79%
    23:00 +6°C° 0 mm 7 mps 770 mmHg 80%

    27 Enero, Sábado

    Tiempo Temperatura Precipitaciones Viento Presión Humedad
    00:00 +6°C° 0 mm 7 mps 770 mmHg 79%
    01:00 +6°C° 0 mm 7 mps 770 mmHg 78%
    02:00 +6°C° 0 mm 7 mps 770 mmHg 77%
    03:00 +5°C° 0 mm 7 mps 769 mmHg 77%
    04:00 +5°C° 0 mm 7 mps 769 mmHg 77%
    05:00 +5°C° 0 mm 7 mps 769 mmHg 77%
    06:00 +5°C° 0 mm 7 mps 770 mmHg 76%
    07:00 +5°C° 0 mm 7 mps 770 mmHg 75%
    08:00 +5°C° 0 mm 7 mps 770 mmHg 73%
    09:00 +8°C° 0 mm 7 mps 770 mmHg 65%
    10:00 +10°C° 0 mm 7 mps 770 mmHg 57%
    11:00 +12°C° 0 mm 7 mps 770 mmHg 50%
    12:00 +14°C° 0 mm 6 mps 769 mmHg 48%
    13:00 +15°C° 0 mm 6 mps 769 mmHg 46%
    14:00 +15°C° 0 mm 6 mps 768 mmHg 44%
    15:00 +14°C° 0 mm 6 mps 768 mmHg 51%
    16:00 +13°C° 0 mm 6 mps 768 mmHg 58%
    17:00 +10°C° 0 mm 6 mps 768 mmHg 64%
    18:00 +9°C° 0 mm 6 mps 768 mmHg 69%
    19:00 +9°C° 0 mm 6 mps 769 mmHg 73%
    20:00 +8°C° 0 mm 6 mps 769 mmHg 77%
    21:00 +7°C° 0 mm 5 mps 769 mmHg 79%
    22:00 +7°C° 0 mm 5 mps 768 mmHg 80%
    23:00 +7°C° 0 mm 5 mps 768 mmHg 81%

    28 Enero, Domingo

    Tiempo Temperatura Precipitaciones Viento Presión Humedad
    00:00 +7°C° 0 mm 5 mps 768 mmHg 82%
    01:00 +6°C° 0 mm 4 mps 767 mmHg 83%
    02:00 +6°C° 0 mm 4 mps 767 mmHg 84%
    03:00 +6°C° 0 mm 4 mps 767 mmHg 85%
    04:00 +6°C° 0 mm 5 mps 766 mmHg 85%
    05:00 +6°C° 0 mm 5 mps 766 mmHg 85%
    06:00 +6°C° 0 mm 5 mps 766 mmHg 83%
    07:00 +7°C° 0 mm 5 mps 766 mmHg 80%
    08:00 +8°C° 0 mm 5 mps 766 mmHg 77%
    09:00 +10°C° 0 mm 6 mps 766 mmHg 71%
    10:00 +13°C° 0 mm 6 mps 766 mmHg 64%
    11:00 +15°C° 0 mm 6 mps 766 mmHg 58%
    12:00 +15°C° 0 mm 6 mps 765 mmHg 55%
    13:00 +15°C° 0 mm 5 mps 765 mmHg 52%
    14:00 +16°C° 0 mm 5 mps 765 mmHg 49%
    15:00 +14°C° 0 mm 5 mps 765 mmHg 52%
    16:00 +13°C° 0 mm 4 mps 765 mmHg 55%
    17:00 +11°C° 0 mm 4 mps 765 mmHg 58%
    18:00 +10°C° 0 mm 4 mps 765 mmHg 59%
    19:00 +8°C° 0 mm 4 mps 765 mmHg 61%
    20:00 +7°C° 0 mm 4 mps 766 mmHg 63%
    21:00 +6°C° 0 mm 4 mps 766 mmHg 64%
    22:00 +5°C° 0 mm 4 mps 765 mmHg 65%
    23:00 +5°C° 0 mm 4 mps 765 mmHg 66%
    Mostrar más